Weather History for Troy, AL

Change the Weather History Date:

Wednesday, May 1, 2013

  Actual Average Record
Temperature  
Mean Temperature 68 °F 67 °F  
Max Temperature 72 °F 81 °F 89 °F (2012)
Min Temperature 63 °F 54 °F 45 °F (2008)
Degree Days  
Heating Degree Days 0 1  
Month to date heating degree days 0 1  
Since 1 July heating degree days 2148 2314  
Cooling Degree Days 3 4  
Month to date cooling degree days 3 4  
Year to date cooling degree days 98 81  
Growing Degree Days 18 (Base 50)    
Moisture  
Dew Point 60 °F    
Average Humidity 78    
Maximum Humidity 87    
Minimum Humidity 68    
Precipitation  
Precipitation 0.07 in 0.08 in 0.13 in (2004)
Month to date precipitation 0.07 0.08  
Year to date precipitation 21.82 19.23  
Snow  
Snow 0.00 in - - ()
Month to date snowfall 0.0  
Since 1 July snowfall 0.0  
Snow Depth 0.00 in    
Sea Level Pressure  
Sea Level Pressure 30.02 in    
Wind  
Wind Speed 8 mph (ENE)    
Max Wind Speed 14 mph    
Max Gust Speed 22 mph    
Visibility 10 miles    
Events Rain    
T = Trace of Precipitation, MM = Missing Value Source: NWS Daily Summary

Daily Weather History Graph

Daily Weather History Graph

Search for Another Location

Airport:

Trip Planner

Search our weather history database for the weather conditions in past years. The results will help you decide how hot, cold, wet, or windy it might be!

Date:

Astronomy

May. 01, 2013 Rise Set
Actual Time 5:58 AM CDT 7:24 PM CDT
Civil Twilight 5:32 AM CDT 7:50 PM CDT
Nautical Twilight 5:01 AM CDT 8:21 PM CDT
Astronomical Twilight 4:28 AM CDT 8:54 PM CDT
Moon 12:32 AM CDT (5/1) 11:35 AM CDT (5/1)
Length of Visible Light 14h 18m
Length of Day
13h 26m
Waning Gibbous, 59% of the Moon is Illuminated
May 1
Waning Gibbous
May 2
Last Quarter
May 9
New
May 17
First Quarter
May 24
Full

Hourly Weather History & Observations

Time (CDT) Temp. Dew Point Humidity Pressure Visibility Wind Dir Wind Speed Gust Speed Precip Events Conditions
12:53 AM 66.9 °F 60.1 °F 79% 30.00 in 10.0 mi NE 3.5 mph - N/A   Partly Cloudy
1:53 AM 66.0 °F 60.1 °F 81% 29.97 in 10.0 mi ENE 4.6 mph - N/A   Clear
2:53 AM 66.0 °F 59.0 °F 78% 29.96 in 10.0 mi ENE 5.8 mph - N/A   Clear
3:53 AM 66.0 °F 59.0 °F 78% 29.96 in 10.0 mi ENE 5.8 mph - N/A   Scattered Clouds
4:53 AM 66.9 °F 60.1 °F 79% 29.98 in 10.0 mi East 6.9 mph - N/A   Clear
5:53 AM 68.0 °F 60.1 °F 76% 29.99 in 10.0 mi East 9.2 mph - N/A   Clear
6:53 AM 66.9 °F 60.1 °F 79% 30.02 in 10.0 mi East 8.1 mph - N/A   Clear
7:53 AM 68.0 °F 61.0 °F 78% 30.04 in 10.0 mi East 6.9 mph - N/A   Mostly Cloudy
8:53 AM 68.0 °F 60.1 °F 76% 30.04 in 10.0 mi East 9.2 mph 16.1 mph N/A   Mostly Cloudy
9:53 AM 68.0 °F 60.1 °F 76% 30.05 in 10.0 mi East 9.2 mph - 0.00 in Rain Light Rain
10:53 AM 66.9 °F 59.0 °F 76% 30.07 in 7.0 mi East 6.9 mph - 0.01 in Rain Light Rain
11:53 AM 66.9 °F 62.1 °F 84% 30.07 in 8.0 mi Calm Calm - 0.02 in Rain Light Rain
12:53 PM 68.0 °F 63.0 °F 84% 30.06 in 7.0 mi ENE 9.2 mph - 0.02 in Rain Light Rain
1:53 PM 69.1 °F 64.0 °F 84% 30.04 in 9.0 mi ENE 10.4 mph - 0.02 in Rain Light Rain
2:53 PM 70.0 °F 63.0 °F 78% 30.02 in 10.0 mi ENE 8.1 mph - 0.00 in   Mostly Cloudy
3:53 PM 70.0 °F 61.0 °F 73% 30.01 in 10.0 mi ENE 8.1 mph - N/A   Overcast
4:53 PM 72.0 °F 61.0 °F 68% 30.01 in 10.0 mi ENE 9.2 mph 16.1 mph N/A   Overcast
5:53 PM 70.0 °F 60.1 °F 71% 30.01 in 10.0 mi ENE 11.5 mph - N/A   Mostly Cloudy
6:53 PM 69.1 °F 60.1 °F 73% 30.02 in 10.0 mi East 6.9 mph - N/A   Mostly Cloudy
7:53 PM 68.0 °F 60.1 °F 76% 30.04 in 10.0 mi ENE 10.4 mph - N/A   Overcast
8:53 PM 66.9 °F 60.1 °F 79% 30.05 in 10.0 mi ENE 6.9 mph - N/A   Overcast
9:53 PM 69.1 °F 59.0 °F 70% 30.05 in 10.0 mi ENE 9.2 mph 19.6 mph N/A   Overcast
10:53 PM 64.9 °F 59.0 °F 81% 30.05 in 10.0 mi East 13.8 mph 17.3 mph 0.00 in Rain Light Rain
11:53 PM 64.0 °F 57.9 °F 80% 30.04 in 10.0 mi East 9.2 mph 19.6 mph 0.00 in   Overcast